Time,TemperatureF,DewpointF,PressureIn,WindDirection,WindDirectionDegrees,WindSpeedMPH,WindSpeedGustMPH,Humidity,HourlyPrecipIn,Conditions,Clouds,dailyrainin,SoftwareType,DateUTC
2013-05-16 00:02:00,64.0,57.0,30.03,WSW,244,0.0,-999.0,77,-99.99,,,-99.99,,2013-05-16 04:02:00,
2013-05-16 00:12:00,64.0,57.0,30.03,WSW,244,0.0,-999.0,77,-99.99,,,-99.99,,2013-05-16 04:12:00,
2013-05-16 00:23:00,64.0,57.0,30.03,WSW,244,0.0,-999.0,77,-99.99,,,-99.99,,2013-05-16 04:23:00,
2013-05-16 00:33:00,63.0,56.0,30.03,WSW,244,0.0,-999.0,78,-99.99,,,-99.99,,2013-05-16 04:33:00,
2013-05-16 00:42:00,63.0,56.0,30.03,WSW,244,0.0,-999.0,78,-99.99,,,-99.99,,2013-05-16 04:42:00,
2013-05-16 00:53:00,63.0,56.0,30.03,WSW,244,0.0,-999.0,78,-99.99,,,-99.99,,2013-05-16 04:53:00,
2013-05-16 01:02:00,62.0,56.0,30.03,WSW,244,0.0,-999.0,80,-99.99,,,-99.99,,2013-05-16 05:02:00,
2013-05-16 01:12:00,62.0,56.0,30.03,WSW,244,0.0,-999.0,80,-99.99,,,-99.99,,2013-05-16 05:12:00,
2013-05-16 01:22:00,62.0,56.0,30.03,WSW,244,0.0,-999.0,81,-99.99,,,-99.99,,2013-05-16 05:22:00,
2013-05-16 01:32:00,61.0,55.0,30.03,WSW,244,0.0,-999.0,82,-99.99,,,-99.99,,2013-05-16 05:32:00,
2013-05-16 01:42:00,61.0,55.0,30.03,WSW,244,0.0,-999.0,82,-99.99,,,-99.99,,2013-05-16 05:42:00,
2013-05-16 01:52:00,61.0,56.0,30.02,WSW,244,0.0,-999.0,83,-99.99,,,-99.99,,2013-05-16 05:52:00,
2013-05-16 02:02:00,61.0,56.0,30.02,WSW,244,0.0,-999.0,83,-99.99,,,-99.99,,2013-05-16 06:02:00,
2013-05-16 02:12:00,61.0,56.0,30.02,WSW,244,0.0,-999.0,83,-99.99,,,-99.99,,2013-05-16 06:12:00,
2013-05-16 02:22:00,60.0,55.0,30.02,WSW,244,0.0,-999.0,83,-99.99,,,-99.99,,2013-05-16 06:22:00,
2013-05-16 02:33:00,60.0,55.0,30.02,WSW,244,0.0,-999.0,84,-99.99,,,-99.99,,2013-05-16 06:33:00,
2013-05-16 02:43:00,60.0,55.0,30.02,WSW,244,0.0,-999.0,84,-99.99,,,-99.99,,2013-05-16 06:43:00,
2013-05-16 02:53:00,60.0,55.0,30.01,WSW,244,0.0,-999.0,84,-99.99,,,-99.99,,2013-05-16 06:53:00,
2013-05-16 03:02:00,59.0,54.0,30.01,WSW,244,0.0,-999.0,85,-99.99,,,-99.99,,2013-05-16 07:02:00,
2013-05-16 03:12:00,59.0,54.0,30.01,WSW,244,0.0,-999.0,85,-99.99,,,-99.99,,2013-05-16 07:12:00,
2013-05-16 03:24:00,59.0,54.0,30.01,WSW,244,0.0,-999.0,85,-99.99,,,-99.99,,2013-05-16 07:24:00,
2013-05-16 03:34:00,59.0,54.0,30.00,WSW,244,0.0,-999.0,85,-99.99,,,-99.99,,2013-05-16 07:34:00,
2013-05-16 03:44:00,59.0,54.0,30.00,WSW,244,0.0,-999.0,85,-99.99,,,-99.99,,2013-05-16 07:44:00,
2013-05-16 03:54:00,58.0,54.0,30.01,WSW,244,0.0,-999.0,86,-99.99,,,-99.99,,2013-05-16 07:54:00,
2013-05-16 04:03:00,58.0,54.0,30.00,WSW,244,0.0,-999.0,86,-99.99,,,-99.99,,2013-05-16 08:03:00,
2013-05-16 04:13:00,58.0,54.0,30.00,WSW,244,0.0,-999.0,86,-99.99,,,-99.99,,2013-05-16 08:13:00,
2013-05-16 04:24:00,58.0,54.0,30.01,WSW,244,0.0,-999.0,87,-99.99,,,-99.99,,2013-05-16 08:24:00,
2013-05-16 04:34:00,57.0,53.0,30.01,WSW,244,0.0,-999.0,88,-99.99,,,-99.99,,2013-05-16 08:34:00,
2013-05-16 04:45:00,57.0,53.0,30.01,WSW,244,0.0,-999.0,88,-99.99,,,-99.99,,2013-05-16 08:45:00,
2013-05-16 04:55:00,57.0,53.0,30.01,WSW,244,0.0,-999.0,88,-99.99,,,-99.99,,2013-05-16 08:55:00,
2013-05-16 05:04:00,57.0,53.0,30.02,WSW,244,0.0,-999.0,88,-99.99,,,-99.99,,2013-05-16 09:04:00,
2013-05-16 05:14:00,57.0,54.0,30.02,WSW,244,0.0,-999.0,89,-99.99,,,-99.99,,2013-05-16 09:14:00,
2013-05-16 05:24:00,57.0,54.0,30.02,WSW,244,0.0,-999.0,89,-99.99,,,-99.99,,2013-05-16 09:24:00,
2013-05-16 05:35:00,56.0,53.0,30.02,WSW,244,0.0,-999.0,89,-99.99,,,-99.99,,2013-05-16 09:35:00,
2013-05-16 05:45:00,56.0,53.0,30.02,WSW,244,0.0,-999.0,89,-99.99,,,-99.99,,2013-05-16 09:45:00,
2013-05-16 05:55:00,56.0,53.0,30.02,WSW,244,0.0,-999.0,89,-99.99,,,-99.99,,2013-05-16 09:55:00,
2013-05-16 06:05:00,56.0,53.0,30.02,WSW,244,0.0,-999.0,89,-99.99,,,-99.99,,2013-05-16 10:05:00,
2013-05-16 06:15:00,56.0,53.0,30.02,WSW,244,0.0,-999.0,90,-99.99,,,-99.99,,2013-05-16 10:15:00,
2013-05-16 06:24:00,56.0,53.0,30.02,WSW,244,0.0,-999.0,90,-99.99,,,-99.99,,2013-05-16 10:24:00,
2013-05-16 06:36:00,56.0,53.0,30.02,WSW,244,0.0,-999.0,90,-99.99,,,-99.99,,2013-05-16 10:36:00,
2013-05-16 06:45:00,56.0,53.0,30.02,WSW,244,0.0,-999.0,90,-99.99,,,-99.99,,2013-05-16 10:45:00,
2013-05-16 06:56:00,56.0,53.0,30.03,WSW,244,0.0,-999.0,90,-99.99,,,-99.99,,2013-05-16 10:56:00,
2013-05-16 07:05:00,56.0,53.0,30.03,WSW,244,0.0,-999.0,91,-99.99,,,-99.99,,2013-05-16 11:05:00,
2013-05-16 07:14:00,56.0,53.0,30.03,WSW,244,0.0,-999.0,91,-99.99,,,-99.99,,2013-05-16 11:14:00,
2013-05-16 07:25:00,56.0,53.0,30.03,WSW,244,0.0,-999.0,91,-99.99,,,-99.99,,2013-05-16 11:25:00,
2013-05-16 07:35:00,56.0,54.0,30.04,WSW,244,0.0,-999.0,92,-99.99,,,-99.99,,2013-05-16 11:35:00,
2013-05-16 07:46:00,56.0,54.0,30.04,WSW,244,0.0,-999.0,92,-99.99,,,-99.99,,2013-05-16 11:46:00,
2013-05-16 07:57:00,56.0,54.0,30.04,WSW,244,0.0,-999.0,92,-99.99,,,-99.99,,2013-05-16 11:57:00,
2013-05-16 08:06:00,57.0,55.0,30.05,WSW,244,0.0,-999.0,93,-99.99,,,-99.99,,2013-05-16 12:06:00,
2013-05-16 08:13:00,57.0,55.0,30.05,WSW,244,0.0,-999.0,93,-99.99,,,-99.99,,2013-05-16 12:13:00,
2013-05-16 08:23:00,58.0,56.0,30.05,WSW,244,0.0,-999.0,93,-99.99,,,-99.99,,2013-05-16 12:23:00,
2013-05-16 08:35:00,59.0,57.0,30.06,WSW,244,0.0,-999.0,94,-99.99,,,-99.99,,2013-05-16 12:35:00,
2013-05-16 08:45:00,59.0,57.0,30.06,WSW,244,0.0,-999.0,94,-99.99,,,-99.99,,2013-05-16 12:45:00,
2013-05-16 08:53:00,59.0,57.0,30.05,WSW,244,0.0,-999.0,94,-99.99,,,-99.99,,2013-05-16 12:53:00,
2013-05-16 09:04:00,60.0,58.0,30.05,WSW,244,0.0,-999.0,94,-99.99,,,-99.99,,2013-05-16 13:04:00,
2013-05-16 09:12:00,60.0,58.0,30.05,WSW,244,0.0,-999.0,94,-99.99,,,-99.99,,2013-05-16 13:12:00,
2013-05-16 09:26:00,62.0,61.0,30.06,WSW,244,0.0,-999.0,95,-99.99,,,-99.99,,2013-05-16 13:26:00,
2013-05-16 09:35:00,63.0,62.0,30.07,WSW,244,0.0,-999.0,95,-99.99,,,-99.99,,2013-05-16 13:35:00,
2013-05-16 09:43:00,63.0,62.0,30.07,WSW,244,0.0,-999.0,95,-99.99,,,-99.99,,2013-05-16 13:43:00,
2013-05-16 09:55:00,64.0,62.0,30.07,WSW,244,0.0,-999.0,94,-99.99,,,-99.99,,2013-05-16 13:55:00,
2013-05-16 10:05:00,64.0,62.0,30.07,WSW,244,0.0,-999.0,93,-99.99,,,-99.99,,2013-05-16 14:05:00,
2013-05-16 10:16:00,64.0,62.0,30.07,WSW,244,0.0,-999.0,93,-99.99,,,-99.99,,2013-05-16 14:16:00,
2013-05-16 10:23:00,66.0,62.0,30.07,WSW,244,0.0,-999.0,88,-99.99,,,-99.99,,2013-05-16 14:23:00,
2013-05-16 10:37:00,67.0,63.0,30.07,WSW,244,0.0,-999.0,86,-99.99,,,-99.99,,2013-05-16 14:37:00,
2013-05-16 10:47:00,67.0,63.0,30.07,WSW,244,0.0,-999.0,86,-99.99,,,-99.99,,2013-05-16 14:47:00,
2013-05-16 10:56:00,69.0,64.0,30.08,WSW,241,0.0,-999.0,83,-99.99,,,-99.99,,2013-05-16 14:56:00,
2013-05-16 11:08:00,70.0,64.0,30.08,WSW,241,0.0,-999.0,81,-99.99,,,-99.99,,2013-05-16 15:08:00,
2013-05-16 11:17:00,70.0,64.0,30.08,WSW,241,0.0,-999.0,81,-99.99,,,-99.99,,2013-05-16 15:17:00,
2013-05-16 11:28:00,71.0,63.0,30.07,SSW,205,0.0,-999.0,75,-99.99,,,-99.99,,2013-05-16 15:28:00,
2013-05-16 11:40:00,72.0,63.0,30.07,SW,217,0.0,-999.0,74,-99.99,,,-99.99,,2013-05-16 15:40:00,
2013-05-16 11:50:00,72.0,63.0,30.07,SW,215,0.0,-999.0,74,-99.99,,,-99.99,,2013-05-16 15:50:00,
2013-05-16 12:00:00,72.0,63.0,30.07,SW,215,0.0,-999.0,74,-99.99,,,-99.99,,2013-05-16 16:00:00,
2013-05-16 12:09:00,73.0,62.0,30.06,SSW,202,1.0,-999.0,69,-99.99,,,-99.99,,2013-05-16 16:09:00,
2013-05-16 12:20:00,73.0,62.0,30.06,SSW,202,1.0,-999.0,69,-99.99,,,-99.99,,2013-05-16 16:20:00,
2013-05-16 12:30:00,74.0,63.0,30.06,SSW,210,1.0,-999.0,69,-99.99,,,-99.99,,2013-05-16 16:30:00,
2013-05-16 12:40:00,74.0,-99.9,30.06,WSW,238,0.0,-999.0,72,-99.99,,,-99.99,,2013-05-16 16:40:00,
2013-05-16 12:50:00,74.0,64.0,30.06,WSW,238,0.0,-999.0,72,-99.99,,,-99.99,,2013-05-16 16:50:00,
2013-05-16 13:01:00,75.0,65.0,30.05,SSW,209,0.0,-999.0,70,-99.99,,,-99.99,,2013-05-16 17:01:00,
2013-05-16 13:10:00,78.0,66.0,30.04,South,182,0.0,-999.0,66,-99.99,,,-99.99,,2013-05-16 17:10:00,
2013-05-16 13:20:00,78.0,66.0,30.04,South,182,0.0,-999.0,66,-99.99,,,-99.99,,2013-05-16 17:20:00,
2013-05-16 13:31:00,79.0,65.0,30.03,SW,217,1.0,-999.0,63,-99.99,,,-99.99,,2013-05-16 17:31:00,
2013-05-16 13:40:00,80.0,64.0,30.03,WSW,245,1.0,-999.0,58,-99.99,,,-99.99,,2013-05-16 17:40:00,
2013-05-16 13:50:00,-999.0,-99.9,30.03,South,189,1.0,-999.0,60,-99.99,,,-99.99,,2013-05-16 17:50:00,
2013-05-16 14:00:00,-999.0,-99.9,30.03,South,189,1.0,-999.0,60,-99.99,,,-99.99,,2013-05-16 18:00:00,
2013-05-16 14:10:00,82.0,66.0,30.02,SW,226,0.0,-999.0,58,-99.99,,,-99.99,,2013-05-16 18:10:00,
2013-05-16 14:20:00,82.0,66.0,30.02,SW,226,0.0,-999.0,58,-99.99,,,-99.99,,2013-05-16 18:20:00,
2013-05-16 14:30:00,-999.0,-99.9,30.02,South,191,2.0,-999.0,55,-99.99,,,-99.99,,2013-05-16 18:30:00,
2013-05-16 14:40:00,-999.0,-99.9,30.01,SW,214,1.0,-999.0,53,-99.99,,,-99.99,,2013-05-16 18:40:00,
2013-05-16 14:50:00,-999.0,-99.9,30.01,SW,214,1.0,-999.0,53,-99.99,,,-99.99,,2013-05-16 18:50:00,
2013-05-16 15:00:00,-999.0,-99.9,30.01,SSW,204,0.0,-999.0,54,-99.99,,,-99.99,,2013-05-16 19:00:00,
2013-05-16 15:10:00,84.0,65.0,30.01,SSW,211,2.0,-999.0,53,-99.99,,,-99.99,,2013-05-16 19:10:00,
2013-05-16 15:20:00,84.0,65.0,30.01,SSW,211,2.0,-999.0,53,-99.99,,,-99.99,,2013-05-16 19:20:00,
2013-05-16 15:30:00,84.0,64.0,30.01,South,177,2.0,-999.0,52,-99.99,,,-99.99,,2013-05-16 19:30:00,
2013-05-16 15:40:00,84.0,-99.9,30.00,WSW,251,1.0,-999.0,55,-99.99,,,-99.99,,2013-05-16 19:40:00,
2013-05-16 15:50:00,-999.0,-99.9,30.00,WSW,251,1.0,-999.0,55,-99.99,,,-99.99,,2013-05-16 19:50:00,
2013-05-16 16:00:00,85.0,-99.9,30.00,SW,217,1.0,-999.0,50,-99.99,,,-99.99,,2013-05-16 20:00:00,
2013-05-16 16:10:00,-999.0,-99.9,29.99,South,186,1.0,-999.0,49,-99.99,,,-99.99,,2013-05-16 20:10:00,
2013-05-16 16:20:00,84.0,-99.9,29.99,SW,224,1.0,-999.0,50,-99.99,,,-99.99,,2013-05-16 20:20:00,
2013-05-16 16:30:00,84.0,-99.9,29.99,SW,224,1.0,-999.0,50,-99.99,,,-99.99,,2013-05-16 20:30:00,
2013-05-16 16:40:00,-999.0,-99.9,29.99,WSW,239,1.0,-999.0,51,-99.99,,,-99.99,,2013-05-16 20:40:00,
2013-05-16 16:50:00,82.0,63.0,29.99,WSW,253,1.0,-999.0,52,-99.99,,,-99.99,,2013-05-16 20:50:00,
2013-05-16 17:00:00,82.0,-99.9,29.99,WSW,253,1.0,-999.0,52,-99.99,,,-99.99,,2013-05-16 21:00:00,
2013-05-16 17:10:00,82.0,-99.9,29.98,SW,219,0.0,-999.0,53,-99.99,,,-99.99,,2013-05-16 21:10:00,
2013-05-16 17:20:00,82.0,-99.9,29.98,SW,219,0.0,-999.0,53,-99.99,,,-99.99,,2013-05-16 21:20:00,
2013-05-16 17:29:00,82.0,63.0,29.98,South,184,1.0,-999.0,52,-99.99,,,-99.99,,2013-05-16 21:29:00,
2013-05-16 17:38:00,81.0,62.0,29.98,SW,232,1.0,-999.0,53,-99.99,,,-99.99,,2013-05-16 21:38:00,
2013-05-16 17:50:00,81.0,-99.9,29.98,SW,232,1.0,-999.0,53,-99.99,,,-99.99,,2013-05-16 21:50:00,
2013-05-16 18:00:00,-999.0,-99.9,29.98,SW,218,1.0,-999.0,53,-99.99,,,-99.99,,2013-05-16 22:00:00,
2013-05-16 18:08:00,81.0,62.0,29.97,SSW,192,1.0,-999.0,53,-99.99,,,-99.99,,2013-05-16 22:08:00,
2013-05-16 18:21:00,81.0,62.0,29.97,SSW,192,1.0,-999.0,53,-99.99,,,-99.99,,2013-05-16 22:21:00,
2013-05-16 18:30:00,81.0,62.0,29.97,SSW,192,1.0,-999.0,52,-99.99,,,-99.99,,2013-05-16 22:30:00,
2013-05-16 18:40:00,81.0,63.0,29.97,South,178,0.0,-999.0,55,-99.99,,,-99.99,,2013-05-16 22:40:00,
2013-05-16 18:51:00,81.0,63.0,29.97,South,178,0.0,-999.0,55,-99.99,,,-99.99,,2013-05-16 22:51:00,
2013-05-16 19:01:00,81.0,64.0,29.97,SSW,201,0.0,-999.0,57,-99.99,,,-99.99,,2013-05-16 23:01:00,
2013-05-16 19:06:00,80.0,64.0,29.97,SW,219,0.0,-999.0,59,-99.99,,,-99.99,,2013-05-16 23:06:00,
2013-05-16 19:16:00,80.0,65.0,29.96,SW,214,0.0,-999.0,60,-99.99,,,-99.99,,2013-05-16 23:16:00,
2013-05-16 19:24:00,80.0,65.0,29.96,SW,214,0.0,-999.0,60,-99.99,,,-99.99,,2013-05-16 23:24:00,
2013-05-16 19:35:00,79.0,64.0,29.96,WSW,255,0.0,-999.0,61,-99.99,,,-99.99,,2013-05-16 23:35:00,
2013-05-16 19:45:00,79.0,64.0,29.96,WSW,255,0.0,-999.0,61,-99.99,,,-99.99,,2013-05-16 23:45:00,
2013-05-16 19:54:00,79.0,65.0,29.96,WSW,257,0.0,-999.0,62,-99.99,,,-99.99,,2013-05-16 23:54:00,
2013-05-16 20:02:00,78.0,64.0,29.97,WSW,257,0.0,-999.0,63,-99.99,,,-99.99,,2013-05-17 00:02:00,
2013-05-16 20:13:00,78.0,64.0,29.97,WSW,257,0.0,-999.0,63,-99.99,,,-99.99,,2013-05-17 00:13:00,
2013-05-16 20:22:00,77.0,63.0,29.98,WSW,257,0.0,-999.0,63,-99.99,,,-99.99,,2013-05-17 00:22:00,
2013-05-16 20:33:00,76.0,64.0,29.98,WSW,257,0.0,-999.0,66,-99.99,,,-99.99,,2013-05-17 00:33:00,
2013-05-16 20:43:00,76.0,64.0,29.98,WSW,257,0.0,-999.0,66,-99.99,,,-99.99,,2013-05-17 00:43:00,
2013-05-16 20:53:00,75.0,63.0,29.98,WSW,257,0.0,-999.0,67,-99.99,,,-99.99,,2013-05-17 00:53:00,
2013-05-16 21:03:00,75.0,64.0,29.98,WSW,257,0.0,-999.0,68,-99.99,,,-99.99,,2013-05-17 01:03:00,
2013-05-16 21:12:00,75.0,64.0,29.98,WSW,257,0.0,-999.0,68,-99.99,,,-99.99,,2013-05-17 01:12:00,
2013-05-16 21:23:00,74.0,63.0,29.98,WSW,257,0.0,-999.0,69,-99.99,,,-99.99,,2013-05-17 01:23:00,
2013-05-16 21:32:00,73.0,63.0,29.98,WSW,257,0.0,-999.0,71,-99.99,,,-99.99,,2013-05-17 01:32:00,
2013-05-16 21:43:00,73.0,63.0,29.98,WSW,257,0.0,-999.0,71,-99.99,,,-99.99,,2013-05-17 01:43:00,
2013-05-16 21:53:00,72.0,62.0,29.99,WSW,257,0.0,-999.0,72,-99.99,,,-99.99,,2013-05-17 01:53:00,
2013-05-16 22:02:00,71.0,62.0,30.00,WSW,257,0.0,-999.0,72,-99.99,,,-99.99,,2013-05-17 02:02:00,
2013-05-16 22:11:00,71.0,62.0,30.00,WSW,257,0.0,-999.0,72,-99.99,,,-99.99,,2013-05-17 02:11:00,
2013-05-16 22:22:00,70.0,61.0,30.00,WSW,257,0.0,-999.0,74,-99.99,,,-99.99,,2013-05-17 02:22:00,
2013-05-16 22:32:00,69.0,61.0,30.01,WSW,257,0.0,-999.0,75,-99.99,,,-99.99,,2013-05-17 02:32:00,
2013-05-16 22:42:00,69.0,61.0,30.01,WSW,257,0.0,-999.0,75,-99.99,,,-99.99,,2013-05-17 02:42:00,
2013-05-16 22:53:00,69.0,61.0,30.01,WSW,257,0.0,-999.0,76,-99.99,,,-99.99,,2013-05-17 02:53:00,
2013-05-16 23:02:00,68.0,61.0,30.01,WSW,257,0.0,-999.0,78,-99.99,,,-99.99,,2013-05-17 03:02:00,
2013-05-16 23:11:00,68.0,61.0,30.01,WSW,257,0.0,-999.0,78,-99.99,,,-99.99,,2013-05-17 03:11:00,
2013-05-16 23:23:00,67.0,60.0,30.01,WSW,257,0.0,-999.0,79,-99.99,,,-99.99,,2013-05-17 03:23:00,
2013-05-16 23:34:00,66.0,60.0,30.01,WSW,257,0.0,-999.0,80,-99.99,,,-99.99,,2013-05-17 03:34:00,
2013-05-16 23:43:00,66.0,60.0,30.01,WSW,257,0.0,-999.0,80,-99.99,,,-99.99,,2013-05-17 03:43:00,
2013-05-16 23:53:00,66.0,60.0,30.01,WSW,257,0.0,-999.0,82,-99.99,,,-99.99,,2013-05-17 03:53:00,